Location: Krakow
(50.0830°N, 19.9170°E)
Time: 07:31:19
(UTC+02:00)

Tiros 1 despin weight - Pass Details

Date: 21 March 2026
Orbit: 555 x 592 km, 48.2° (Epoch: 18 April)

Event Time Altitude Azimuth Distance (km) Brightness Sun altitude
Rises 02:38:37 0° 220° (SW) 2,814 - -28.0°
Reaches altitude 10° 02:41:07 10° 209° (SSW) 1,915 - -27.6°
Maximum altitude 02:44:53 28° 150° (SSE) 1,111 - -27.2°
Exits shadow 02:46:06 24° 122° (ESE) 1,220 ? -27.0°
Drops below altitude 10° 02:48:39 10° 91° (E) 1,913 ? -26.7°
Sets 02:51:08 0° 80° (E) 2,811 ? -26.4°
